Content
SEND FEEDBACK

Daily
Averages
Monthly
Summary
India

TAMBARAM, INDIA


Home > Asia > India
Elevation: 95 feet     Latitude: 12 54N     Longitude: 080 07E

WEATHER
 
SELECT A DAY
Number of Records: 205,589;   Date Range: 7/1/96 - 10/19/14
 
SHARE

PRINT THIS DATA

[ ← Previous Day ]
WEATHER ALMANAC - JANUARY 31, 2013
[ Next Day → ]
[ °C ]   °F
Weather ElementAverageHighLow
Temperature77.7 °F86 °F (12:10 pm)69.8 °F (6:10 am)
Dewpoint66 °F70 °F (8:30 am)62.6 °F (11:10 am)
Humidity67.6 %94 % (6:10 am)38 % (11:30 am)
Barometer29.97 in30.04 in (8:30 am)29.89 in (3:10 pm)
Wind Speed5.8 mph16.1 mph (12:10 pm)
Wind Gust23 mph (12:40 pm)
Weather ElementAverage
Visibility3.3 mi
Wind DirectionENE (59.1 °)

Weather ElementTotal
Precipitation---
Cooling Degree Days12.9 (Base 65)
Growing Degree Days27.9 (Base 50)
Averaged from 48 records on January 31, 2013
WEATHER CONDITIONS BREAKOUT
WIND DIRECTION BREAKOUT
WEATHER BY HOUR - JANUARY 31, 2013
[ °C ]   °F
Local TimeTemperatureDewpointHumidityBarometerVisibilityWind DirectionWind SpeedGust SpeedPrecipitationEventsConditions
12:40 AM73.4 °F68.0 °F83 %29.98 in3.1 miNE (40°)3.5 mphHaze
1:10 AM73.4 °F68.0 °F83 %29.95 in3.1 miEast (80°)3.5 mphHaze
1:40 AM75.2 °F68.0 °F78 %29.95 in3.1 miEast (90°)4.6 mphHaze
2:10 AM75.2 °F68.0 °F78 %29.95 in3.1 miEast (90°)4.6 mphHaze
2:30 AM73.0 °F69.0 °F83 %29.99 in2.0 miCalmPartly Cloudy
2:40 AM75.2 °F68.0 °F78 %29.95 in3.1 miENE (70°)2.3 mphHaze
3:10 AM73.4 °F68.0 °F83 %29.95 in2.5 miCalmHaze
3:40 AM73.4 °F68.0 °F83 %29.95 in2.5 miCalmHaze
4:10 AM71.6 °F68.0 °F88 %29.95 in2.5 miCalmHaze
4:40 AM71.6 °F68.0 °F88 %29.95 in2.5 miCalmHaze
5:10 AM71.6 °F68.0 °F88 %29.95 in2.2 miCalmHaze
5:30 AM72.0 °F68.0 °F83 %29.99 in2.0 miCalmHaze
6:10 AM69.8 °F68.0 °F94 %29.98 in1.0 miWNW (290°)2.3 mphScattered Clouds
7:40 AM71.6 °F69.8 °F94 %30.01 in0.5 miCalmFogFog
8:10 AM73.4 °F69.8 °F88 %30.01 in0.6 miCalmFogShallow Fog
8:30 AM75.0 °F70.0 °F79 %30.04 in2.0 miCalmHaze
8:40 AM75.2 °F69.8 °F83 %30.01 in0.7 miCalmFogShallow Fog
10:40 AM82.4 °F64.4 °F54 %30.01 in3.1 miNNE (20°)9.2 mphHaze
11:10 AM84.2 °F62.6 °F48 %30.01 in3.1 miNE (50°)9.2 mphHaze
11:30 AM85.0 °F63.0 °F38 %30.02 in6.0 miNE (50°)4.6 mphScattered Clouds
11:40 AM84.2 °F66.2 °F55 %29.98 in3.1 miNNE (20°)8.1 mphHaze
12:10 PM86.0 °F64.4 °F48 %29.98 in3.1 miEast (80°)16.1 mphHaze
12:40 PM86.0 °F64.4 °F48 %29.98 in3.1 miENE (60°)11.5 mph23.0 mphHaze
1:10 PM86.0 °F64.4 °F48 %29.95 in3.7 miENE (60°)9.2 mph20.7 mphPartly Cloudy
1:40 PM84.2 °F64.4 °F51 %29.95 in4.3 miEast (80°)9.2 mph20.7 mphPartly Cloudy
2:10 PM84.2 °F66.2 °F55 %29.92 in4.3 miEast (80°)8.1 mph19.6 mphPartly Cloudy
2:30 PM85.0 °F66.0 °F44 %29.95 in6.0 miSouth (180°)4.6 mphScattered Clouds
2:40 PM84.2 °F66.2 °F55 %29.92 in4.3 miENE (70°)8.1 mph19.6 mphPartly Cloudy
3:10 PM82.4 °F66.2 °F58 %29.89 in4.3 miEast (80°)13.8 mphPartly Cloudy
3:40 PM82.4 °F66.2 °F58 %29.89 in4.3 miEast (80°)8.1 mph19.6 mphPartly Cloudy
4:10 PM82.4 °F66.2 °F58 %29.89 in4.3 miEast (80°)8.1 mph19.6 mphPartly Cloudy
4:40 PM82.4 °F64.4 °F54 %29.92 in4.3 miEast (80°)8.1 mph19.6 mphPartly Cloudy
5:10 PM80.6 °F64.4 °F58 %29.92 in4.3 miENE (70°)12.7 mphPartly Cloudy
5:30 PM81.0 °F65.0 °F48 %29.96 in6.0 miSE (140°)3.5 mphScattered Clouds
5:40 PM78.8 °F64.4 °F61 %29.92 in4.3 miENE (60°)12.7 mphPartly Cloudy
6:10 PM77.0 °F64.4 °F65 %29.92 in3.7 miENE (60°)8.1 mphPartly Cloudy
6:40 PM77.0 °F64.4 °F65 %29.95 in3.7 miENE (60°)9.2 mphScattered Clouds
7:10 PM77.0 °F64.4 °F65 %29.95 in3.7 miENE (60°)9.2 mphScattered Clouds
7:40 PM75.2 °F64.4 °F69 %29.95 in3.7 miENE (70°)9.2 mphScattered Clouds
8:10 PM75.2 °F64.4 °F69 %29.98 in3.7 miENE (60°)9.2 mphScattered Clouds
8:40 PM75.2 °F64.4 °F69 %29.98 in3.7 miENE (70°)9.2 mphScattered Clouds
9:10 PM75.2 °F64.4 °F69 %30.01 in3.7 miNE (50°)8.1 mphScattered Clouds
9:40 PM75.2 °F64.4 °F69 %30.01 in3.7 miNNE (30°)5.8 mphScattered Clouds
10:10 PM75.2 °F64.4 °F69 %30.01 in3.7 miNE (40°)5.8 mphScattered Clouds
10:40 PM75.2 °F64.4 °F69 %30.01 in3.7 miNE (40°)5.8 mphScattered Clouds
11:10 PM75.2 °F64.4 °F69 %30.01 in3.7 miNNE (30°)4.6 mphScattered Clouds
11:30 PM77.0 °F64.0 °F55 %30.02 in2.0 miNE (50°)2.3 mphScattered Clouds
11:40 PM75.2 °F64.4 °F69 %29.98 in3.7 miNE (40°)5.8 mphScattered Clouds
Hourly data recorded from VOMM, located miles away from Tambaram, India







STORIES FROM OUR PARTNERS